Time,TemperatureF,DewpointF,PressureIn,WindDirection,WindDirectionDegrees,WindSpeedMPH,WindSpeedGustMPH,Humidity,HourlyPrecipIn,Conditions,Clouds,dailyrainin,SolarRadiationWatts/m^2,SoftwareType,DateUTC
2013-11-18 15:42:00,67.0,32.0,-100.00,North,349,5.0,13.0,27,-99.99,,,-99.99,71.000000,,2013-11-18 20:42:00,
2013-11-18 15:52:00,67.0,32.0,-100.00,North,349,5.0,13.0,27,-99.99,,,-99.99,71.000000,,2013-11-18 20:52:00,
2013-11-18 16:02:00,67.0,32.0,-100.00,North,349,5.0,13.0,27,-99.99,,,-99.99,71.000000,,2013-11-18 21:02:00,
2013-11-18 16:43:00,65.0,31.0,-100.00,NW,324,4.0,11.0,28,0.00,,,-99.99,127.000000,,2013-11-18 21:43:00,
2013-11-18 16:54:00,65.0,31.0,-100.00,NW,324,4.0,11.0,28,0.00,,,-99.99,127.000000,,2013-11-18 21:54:00,
2013-11-18 17:03:00,65.0,31.0,-100.00,NW,324,4.0,11.0,28,0.00,,,-99.99,127.000000,,2013-11-18 22:03:00,
2013-11-18 17:43:00,61.0,31.0,-100.00,NNW,328,4.0,11.0,32,0.00,,,-99.99,44.000000,,2013-11-18 22:43:00,
2013-11-18 17:53:00,61.0,31.0,-100.00,NNW,328,4.0,11.0,32,0.00,,,-99.99,44.000000,,2013-11-18 22:53:00,
2013-11-18 18:02:00,61.0,31.0,-100.00,NNW,328,4.0,11.0,32,0.00,,,-99.99,44.000000,,2013-11-18 23:02:00,
2013-11-18 18:42:00,56.0,31.0,-100.00,WNW,282,2.0,8.0,38,0.00,,,-99.99,3.000000,,2013-11-18 23:42:00,
2013-11-18 18:52:00,56.0,31.0,-100.00,WNW,282,2.0,8.0,38,0.00,,,-99.99,3.000000,,2013-11-18 23:52:00,
2013-11-18 19:02:00,56.0,31.0,-100.00,WNW,282,2.0,8.0,38,0.00,,,-99.99,3.000000,,2013-11-19 00:02:00,
2013-11-18 19:42:00,55.0,31.0,-100.00,NW,306,4.0,10.0,39,0.00,,,-99.99,0.000000,,2013-11-19 00:42:00,
2013-11-18 19:52:00,55.0,31.0,-100.00,NW,306,4.0,10.0,39,0.00,,,-99.99,0.000000,,2013-11-19 00:52:00,
2013-11-18 20:02:00,55.0,31.0,-100.00,NW,306,4.0,10.0,39,0.00,,,-99.99,0.000000,,2013-11-19 01:02:00,
2013-11-18 20:42:00,54.0,31.0,-100.00,NW,319,5.0,10.0,41,0.00,,,-99.99,0.000000,,2013-11-19 01:42:00,
2013-11-18 20:52:00,54.0,31.0,-100.00,NW,319,5.0,10.0,41,0.00,,,-99.99,0.000000,,2013-11-19 01:52:00,
2013-11-18 21:01:00,54.0,31.0,-100.00,NW,319,5.0,10.0,41,0.00,,,-99.99,0.000000,,2013-11-19 02:01:00,
2013-11-18 21:42:00,52.0,30.0,-100.00,NNW,327,4.0,9.0,43,0.00,,,-99.99,0.000000,,2013-11-19 02:42:00,
2013-11-18 21:52:00,52.0,30.0,-100.00,NNW,327,4.0,9.0,43,0.00,,,-99.99,0.000000,,2013-11-19 02:52:00,
2013-11-18 22:02:00,52.0,30.0,-100.00,NNW,327,4.0,9.0,43,0.00,,,-99.99,0.000000,,2013-11-19 03:02:00,
2013-11-18 22:43:00,51.0,31.0,-100.00,NW,310,4.0,10.0,46,0.00,,,-99.99,0.000000,,2013-11-19 03:43:00,
2013-11-18 22:54:00,51.0,31.0,-100.00,NW,310,4.0,10.0,46,0.00,,,-99.99,0.000000,,2013-11-19 03:54:00,
2013-11-18 23:42:00,49.0,32.0,-100.00,NNW,329,4.0,10.0,51,0.00,,,-99.99,0.000000,,2013-11-19 04:42:00,
2013-11-18 23:52:00,49.0,32.0,-100.00,NNW,329,4.0,10.0,51,0.00,,,-99.99,0.000000,,2013-11-19 04:52:00,